Flag for U.S.A. Weather past 2 weeks in Waterbury, Connecticut, U.S.A.

Now
82 °F

Passing clouds.


Feels Like: 85 °F
Forecast: 66 / 88 °F
Wind: 5 mph from Northwest

Location: Oxford

Current Time: Jul 28, 2015 at 12:19:14 PM

Latest Report: Jul 28, 2015 at 11:50 AM


Visibility: 10 mi

Pressure: 30.04 "Hg

Humidity: 58%

Dew point: 66 °F

Location of WaterburyLocation

Historic Weather in Waterbury — Graph

°F

Waterbury temperature yesterday

Maximum temperature yesterday: 81 °F (at 3:50 PM)
Minimum temperature yesterday: 70 °F (at 1:15 AM)
Average temperature yesterday: 72 °F

Past Weeks' High & Low Weather Summary

 TemperatureHumidityPressure
High88 °F (Jul 19, 1:50 PM)83% (Jul 14, 3:15 AM)30.15 "Hg (Jul 14, 3:15 AM)
Low54 °F (Jul 17, 2:35 AM)42% (Jul 23, 4:48 PM)29.61 "Hg (Jul 15, 4:15 AM)
Average70 °F69%29.90 "Hg
* Reported Jul 13 12:50 PM — Jul 28 10:50 AM, Waterbury, Weather by CustomWeather, © 2015

Note: Actual official high and low records may vary slightly from our data, if they occured in-between our weather recording intervals... More about our weather records

Advertising

Waterbury weather history for previous 24 hours

 ConditionsComfort  
Time TempWeatherWind HumidityBarometerVisibility
10:50 AM
Tue, Jul 28
81 °FPassing clouds.5 mph62%30.04 "Hg10 mi
9:50 AM77 °FScattered clouds.5 mph69%30.04 "Hg10 mi
8:50 AM73 °FPassing clouds.No wind78%30.05 "Hg8 mi
7:50 AM72 °FFog.No wind78%30.05 "Hg3 mi
6:50 AM70 °FFog.No wind78%30.04 "Hg1 mi
5:50 AM68 °FFog.No wind78%30.04 "Hg1 mi
5:35 AM68 °FPassing clouds.No wind78%30.04 "Hg1 mi
5:15 AM66 °FClear.No wind83%30.04 "Hg4 mi
4:55 AM66 °FClear.No wind83%30.03 "Hg5 mi
4:35 AM66 °FClear.No wind83%30.03 "Hg6 mi
4:15 AM68 °FClear.No wind78%30.03 "Hg6 mi
3:55 AM66 °FPassing clouds.No wind83%30.03 "Hg5 mi
3:35 AM68 °FPassing clouds.No wind78%30.04 "Hg7 mi
3:15 AM70 °FClear.No wind73%30.04 "Hg5 mi
2:55 AM68 °FClear.No wind78%30.04 "Hg7 mi
2:35 AM70 °FClear.No wind78%30.04 "Hg7 mi
2:15 AM70 °FClear.No wind78%30.04 "Hg9 mi
1:55 AM72 °FClear.No wind73%30.04 "Hg10 mi
1:35 AM72 °FClear.No wind73%30.04 "Hg10 mi
1:15 AM72 °FClear.No wind73%30.05 "Hg10 mi
12:55 AM72 °FClear.3 mph73%30.05 "Hg10 mi
12:35 AM72 °FClear.No wind73%30.05 "Hg10 mi
11:55 PM
Mon, Jul 27
72 °FClear.No wind73%30.05 "Hg10 mi
11:35 PM72 °FClear.No wind78%30.05 "Hg10 mi
11:15 PM72 °FClear.3 mph78%30.05 "Hg10 mi
10:55 PM72 °FClear.5 mph78%30.05 "Hg10 mi
10:35 PM72 °FClear.3 mph78%30.06 "Hg10 mi
10:15 PM72 °FClear.3 mph73%30.06 "Hg10 mi
9:55 PM72 °FClear.3 mph78%30.07 "Hg10 mi
9:35 PM73 °FClear.5 mph74%30.06 "Hg10 mi
9:15 PM73 °FClear.3 mph74%30.05 "Hg10 mi
8:55 PM73 °FPassing clouds.6 mph74%30.05 "Hg10 mi
7:50 PM75 °FScattered clouds.3 mph69%30.04 "Hg10 mi
6:50 PM77 °FScattered clouds.7 mph69%30.03 "Hg10 mi
5:50 PM79 °FBroken clouds.9 mph65%30.04 "Hg10 mi
4:50 PM79 °FPartly sunny.8 mph61%30.03 "Hg10 mi
3:50 PM81 °FPartly sunny.13 mph62%30.05 "Hg10 mi
2:50 PM79 °FPartly sunny.12 mph65%30.05 "Hg10 mi
1:50 PM79 °FScattered clouds.6 mph65%30.06 "Hg10 mi
12:50 PM75 °FScattered clouds.12 mph74%30.07 "Hg10 mi
Weather by CustomWeather, © 2015

See weather overviewHow to use our weather pages